Location: Poprad
(49.0500°N, 20.3000°E)
Time: 02:07:18
(UTC+01:00)

ISS - Pass Details

Date: 02 February 2021
Orbit: 417 x 422 km, 51.6° (Epoch: 06 March)

Event Time Altitude Azimuth Distance (km) Brightness Sun altitude
Rises 18:06:10 0° 290° (WNW) 2,375 1.2 -14.7°
Reaches altitude 10° 18:08:17 10° 287° (WNW) 1,509 0.1 -15.0°
Maximum altitude 18:11:37 59° 207° (SSW) 492 -3.3 -15.5°
Enters shadow 18:13:27 24° 134° (SE) 924 -2.4 -15.8°
